Location: Albany
(35.0000°S, 118.0000°E)
Time: 08:50:57
(UTC-04:00)

Cosmos 1933 - Visible Passes

Search period start: 30 April 2017 00:00
Search period end: 10 May 2017 00:00
Orbit: 548 x 566 km, 82.5° (Epoch: 28 April)

Date Brightness Start Highest point End Pass type
(mag) Time Alt. Az. Time Alt. Az. Time Alt. Az.
30 Apr 3.5 07:14:20 10° S 07:18:31 75° W 07:22:35 10° N visible
01 May 3.8 07:12:14 10° SSW 07:16:22 63° W 07:20:24 10° N visible
02 May 4.1 07:10:09 10° SSW 07:14:13 52° W 07:18:11 10° N visible
03 May 4.5 07:08:06 10° SSW 07:12:03 44° W 07:15:56 10° NNW visible
04 May 4.9 07:06:03 10° SSW 07:09:54 37° W 07:13:40 10° NNW visible
05 May 5.3 07:04:02 10° SSW 07:07:44 31° W 07:11:22 10° NNW visible
06 May 5.6 07:02:03 10° SSW 07:05:33 27° W 07:09:01 10° NNW visible
07 May 5.9 07:00:05 10° SW 07:03:23 23° W 07:06:37 10° NW visible
07 May 6.9 17:43:32 10° ENE 17:44:56 11° E 17:46:19 10° ESE visible
08 May 6.2 06:58:11 10° SW 07:01:12 20° W 07:04:11 10° NW visible
08 May 6.7 17:40:40 10° ENE 17:42:44 14° E 17:44:48 10° SE visible
09 May 6.4 06:56:19 10° SW 06:59:00 17° W 07:01:41 10° NW visible
09 May 6.6 17:38:01 10° NE 17:40:32 16° E 17:43:05 10° SE visible
